Buena Vista, CO

5:48 PM MDT on May 26, 2017 (GMT -0600)
Buena Vista

Weather History for KAEJ - August, 2014

Change the Weather History Date:

Friday, August 1, 2014

  Actual Average (KLXV) Record (KLXV)
Temperature  
Mean Temperature 57 °F -  
Max Temperature 64 °F 67 °F 79 °F (2000)
Min Temperature 49 °F 41 °F 32 °F (1977)
Degree Days  
Heating Degree Days 8    
Growing Degree Days 7 (Base 50)    
Moisture  
Dew Point 49 °F    
Average Humidity 81    
Maximum Humidity 95    
Minimum Humidity 55    
Precipitation  
Precipitation 0.00 in - - ()
Sea Level Pressure  
Sea Level Pressure 30.44 in    
Wind  
Wind Speed 1 mph (NNW)    
Max Wind Speed 17 mph    
Max Gust Speed 28 mph    
Visibility 10 miles    
Events Rain , Thunderstorm    
Averages and records for this station are not official NWS values.
T = Trace of Precipitation, MM = Missing Value Source: NWS Daily Summary

Daily Weather History Graph

Daily Weather History Graph

Search for Another Location

Airport or City:

Trip Planner

Search our weather history database for the weather conditions in past years. The results will help you decide how hot, cold, wet, or windy it might be!

Date:

Astronomy

Aug. 01, 2014 Rise Set
Actual Time 6:05 AM MDT 8:15 PM MDT
Civil Twilight 5:36 AM MDT 8:44 PM MDT
Nautical Twilight 4:59 AM MDT 9:21 PM MDT
Astronomical Twilight 4:20 AM MDT 10:00 PM MDT
Moon 11:28 AM MDT (8/1) 11:05 PM MDT (8/1)
Length of Visible Light 15h 08m
Length of Day
14h 09m
Waxing Crescent, 28% of the Moon is Illuminated
Aug 1
Waxing Crescent
Aug 3
First Quarter
Aug 10
Full
Aug 17
Last Quarter
Aug 25
New

Hourly Weather History & Observations

Time (MDT) Temp. Dew Point Humidity Pressure Visibility Wind Dir Wind Speed Gust Speed Precip Events Conditions
12:15 AM 53.1 °F 51.3 °F 94% 30.46 in 10.0 mi Calm Calm - N/A   Overcast
12:35 AM 53.2 °F 51.1 °F 92% 30.45 in 10.0 mi Calm Calm - N/A   Overcast
12:55 AM 52.9 °F 51.1 °F 94% 30.45 in 10.0 mi Calm Calm - N/A   Overcast
1:15 AM 52.9 °F 51.1 °F 94% 30.44 in 10.0 mi Calm Calm - N/A   Overcast
1:35 AM 52.9 °F 51.1 °F 94% 30.44 in 10.0 mi Calm Calm - N/A   Overcast
2:15 AM 52.5 °F 50.9 °F 94% 30.43 in 10.0 mi Calm Calm - N/A   Mostly Cloudy
2:35 AM 51.4 °F 50.2 °F 95% 30.42 in 10.0 mi Calm Calm - N/A   Scattered Clouds
2:55 AM 51.8 °F 50.2 °F 94% 30.42 in 10.0 mi Calm Calm - N/A   Mostly Cloudy
3:15 AM 51.4 °F 50.2 °F 95% 30.42 in 10.0 mi Calm Calm - N/A   Mostly Cloudy
3:35 AM 50.0 °F 48.6 °F 95% 30.42 in 10.0 mi Calm Calm - N/A   Overcast
4:15 AM 51.1 °F 49.1 °F 93% 30.42 in 10.0 mi WNW 3.5 mph - N/A   Overcast
4:35 AM 51.1 °F 49.3 °F 94% 30.41 in 10.0 mi Calm Calm - N/A   Overcast
4:55 AM 51.3 °F 49.5 °F 94% 30.42 in 10.0 mi Calm Calm - N/A   Overcast
5:15 AM 51.8 °F 50.0 °F 94% 30.42 in 10.0 mi Calm Calm - N/A   Overcast
5:35 AM 52.0 °F 49.8 °F 92% 30.42 in 10.0 mi Calm Calm - N/A   Overcast
5:55 AM 51.1 °F 49.1 °F 93% 30.42 in 10.0 mi Calm Calm - N/A   Overcast
6:15 AM 51.3 °F 49.5 °F 94% 30.42 in 10.0 mi Calm Calm - N/A   Overcast
6:35 AM 51.4 °F 49.5 °F 93% 30.42 in 10.0 mi Calm Calm - N/A   Overcast
6:55 AM 52.2 °F 50.0 °F 92% 30.43 in 10.0 mi Calm Calm - N/A   Overcast
7:15 AM 52.7 °F 50.0 °F 91% 30.43 in 10.0 mi WSW 3.5 mph - N/A   Overcast
7:35 AM 53.6 °F 50.5 °F 89% 30.43 in 10.0 mi Calm Calm - N/A   Overcast
7:55 AM 53.6 °F 50.2 °F 88% 30.44 in 10.0 mi Calm Calm - N/A   Overcast
8:15 AM 54.1 °F 50.2 °F 86% 30.45 in 10.0 mi Calm Calm - N/A   Overcast
8:35 AM 54.5 °F 51.3 °F 89% 30.45 in 7.0 mi Calm Calm - N/A Rain Rain
8:55 AM 55.4 °F 50.9 °F 85% 30.45 in 10.0 mi Calm Calm - N/A   Overcast
9:15 AM 55.8 °F 50.4 °F 82% 30.44 in 10.0 mi Calm Calm - N/A   Overcast
9:35 AM 56.1 °F 50.2 °F 80% 30.44 in 10.0 mi Calm Calm - N/A   Overcast
9:55 AM 57.2 °F 49.5 °F 75% 30.44 in 10.0 mi Calm Calm - N/A   Overcast
10:15 AM 57.2 °F 48.4 °F 72% 30.44 in 10.0 mi Calm Calm - N/A   Overcast
10:35 AM 57.9 °F 48.6 °F 71% 30.44 in 10.0 mi Calm Calm - N/A   Overcast
10:55 AM 58.3 °F 48.4 °F 70% 30.44 in 10.0 mi Calm Calm - N/A   Overcast
11:15 AM 58.3 °F 48.6 °F 70% 30.44 in 10.0 mi Calm Calm - N/A Rain Light Rain
11:35 AM 59.0 °F 48.2 °F 67% 30.44 in 10.0 mi Calm Calm - N/A Rain , Thunderstorm Light Thunderstorms and Rain
12:15 PM 60.8 °F 48.0 °F 63% 30.43 in 10.0 mi Calm Calm - N/A   Overcast
12:35 PM 60.6 °F 46.4 °F 59% 30.43 in 10.0 mi Calm Calm - N/A Rain , Thunderstorm Light Thunderstorms and Rain
12:55 PM 62.4 °F 48.0 °F 59% 30.42 in 10.0 mi NE 3.5 mph - N/A Rain Light Rain
1:15 PM 63.1 °F 49.1 °F 60% 30.42 in 10.0 mi East 6.9 mph - N/A Rain , Thunderstorm Light Thunderstorms and Rain
1:35 PM 63.9 °F 48.0 °F 56% 30.41 in 10.0 mi NNE 4.6 mph - N/A   Overcast
1:55 PM 64.8 °F 48.2 °F 55% 30.40 in 10.0 mi Calm Calm - N/A   Overcast
2:35 PM 58.1 °F 50.0 °F 74% 30.42 in 5.0 mi NE 4.6 mph - N/A Rain , Thunderstorm Light Thunderstorms and Rain
2:55 PM 58.1 °F 49.6 °F 73% 30.42 in 7.0 mi NNE 17.3 mph 21.9 mph N/A Rain , Thunderstorm Light Thunderstorms and Rain
3:15 PM 56.5 °F 46.0 °F 68% 30.43 in 10.0 mi NNE 12.7 mph - N/A Rain Rain
3:35 PM 54.5 °F 47.7 °F 78% 30.46 in 4.0 mi North 13.8 mph 27.6 mph N/A Rain , Thunderstorm Rain
3:55 PM 53.4 °F 48.9 °F 85% 30.49 in 4.0 mi WNW 8.1 mph - N/A Rain Rain
4:35 PM 54.1 °F 49.1 °F 83% 30.47 in 5.0 mi Calm Calm - N/A Rain Light Rain
5:15 PM 55.9 °F 49.6 °F 79% 30.46 in 7.0 mi West 3.5 mph - N/A Rain Light Rain
5:35 PM 57.4 °F 48.9 °F 73% 30.45 in 7.0 mi NNW 3.5 mph - N/A   Mostly Cloudy
5:55 PM 57.6 °F 46.6 °F 67% 30.45 in 10.0 mi West 4.6 mph - N/A   Mostly Cloudy
6:15 PM 57.6 °F 46.4 °F 66% 30.45 in 10.0 mi WSW 3.5 mph - N/A   Overcast
6:35 PM 57.6 °F 45.1 °F 63% 30.45 in 10.0 mi Calm Calm - N/A   Overcast
6:55 PM 57.7 °F 46.0 °F 65% 30.45 in 10.0 mi Calm Calm - N/A   Overcast
7:15 PM 58.1 °F 45.9 °F 64% 30.45 in 10.0 mi Calm Calm - N/A   Overcast
7:35 PM 57.2 °F 47.7 °F 70% 30.45 in 10.0 mi NNE 3.5 mph - N/A   Overcast
7:55 PM 56.8 °F 47.3 °F 70% 30.45 in 10.0 mi Calm Calm - N/A   Overcast
8:15 PM 56.3 °F 49.6 °F 78% 30.45 in 10.0 mi Calm Calm - N/A   Overcast
8:35 PM 56.3 °F 49.1 °F 77% 30.46 in 10.0 mi Calm Calm - N/A   Overcast
8:55 PM 55.4 °F 50.2 °F 83% 30.46 in 10.0 mi Calm Calm - N/A   Mostly Cloudy
9:15 PM 54.5 °F 50.0 °F 85% 30.46 in 10.0 mi Calm Calm - N/A   Clear
9:35 PM 54.0 °F 50.0 °F 86% 30.47 in 10.0 mi Calm Calm - N/A   Clear
9:55 PM 52.3 °F 49.5 °F 90% 30.47 in 10.0 mi Calm Calm - N/A   Scattered Clouds
10:15 PM 51.8 °F 48.6 °F 89% 30.47 in 10.0 mi West 3.5 mph - N/A   Scattered Clouds
10:35 PM 51.1 °F 47.5 °F 87% 30.48 in 10.0 mi Calm Calm - N/A   Scattered Clouds
10:55 PM 50.9 °F 47.7 °F 89% 30.48 in 10.0 mi Calm Calm - N/A   Scattered Clouds
11:35 PM 49.3 °F 45.9 °F 88% 30.48 in 10.0 mi West 5.8 mph - N/A   Clear